| time (UTC) | temp F | wind direction | speed MPH | gust MPH | rain 1hr in | rain 24hr in | rain mn in | humidity % | barometer mb |
| 20260507215014 | 55 | 295 | 0.0 | 0.0 | 0.00 | 0.00 | 0.00 | 55 | 975.6 |
| 20260507214527 | 55 | 295 | 0.0 | 0.0 | 0.00 | 0.00 | 0.00 | 54 | 975.5 |
| 20260507214007 | 55 | 295 | 0.0 | 0.0 | 0.00 | 0.00 | 0.00 | 55 | 975.4 |
| 20260507213507 | 55 | 295 | 0.0 | 0.0 | 0.00 | 0.00 | 0.00 | 56 | 975.4 |
| 20260507213027 | 55 | 295 | 0.0 | 0.0 | 0.00 | 0.00 | 0.00 | 56 | 975.4 |
| 20260507212505 | 54 | 295 | 0.0 | 0.0 | 0.00 | 0.00 | 0.00 | 60 | 975.4 |
| 20260507212004 | 54 | 295 | 0.0 | 0.0 | 0.00 | 0.00 | 0.00 | 61 | 975.4 |
| 20260507211503 | 54 | 295 | 0.0 | 0.0 | 0.00 | 0.00 | 0.00 | 57 | 975.4 |
| 20260507211004 | 54 | 295 | 0.0 | 0.0 | 0.00 | 0.00 | 0.00 | 57 | 975.4 |
| 20260507210503 | 55 | 295 | 0.0 | 0.0 | 0.00 | 0.00 | 0.00 | 55 | 975.3 |
| 20260507210005 | 55 | 295 | 0.0 | 0.0 | 0.00 | 0.00 | 0.00 | 56 | 975.3 |
| 20260507205508 | 55 | 295 | 0.0 | 0.0 | 0.00 | 0.00 | 0.00 | 56 | 975.2 |
| 20260507205005 | 55 | 295 | 0.0 | 0.0 | 0.00 | 0.00 | 0.00 | 56 | 975.3 |
| 20260507204510 | 55 | 295 | 0.0 | 0.0 | 0.00 | 0.00 | 0.00 | 55 | 975.2 |
| 20260507204005 | 55 | 295 | 0.0 | 0.0 | 0.00 | 0.00 | 0.00 | 55 | 975.0 |
| 20260507203504 | 56 | 295 | 0.0 | 0.0 | 0.00 | 0.00 | 0.00 | 56 | 974.9 |
| 20260507203029 | 56 | 295 | 0.0 | 0.0 | 0.00 | 0.00 | 0.00 | 53 | 974.9 |
| 20260507202508 | 56 | 295 | 0.0 | 0.0 | 0.00 | 0.00 | 0.00 | 56 | 974.9 |
| 20260507202006 | 56 | 295 | 0.0 | 0.0 | 0.00 | 0.00 | 0.00 | 56 | 975.0 |
| 20260507201519 | 56 | 295 | 0.0 | 0.0 | 0.00 | 0.00 | 0.00 | 53 | 975.0 |
| 20260507201006 | 56 | 295 | 0.0 | 0.0 | 0.00 | 0.00 | 0.00 | 53 | 974.9 |
| 20260507200503 | 56 | 295 | 0.0 | 0.0 | 0.00 | 0.00 | 0.00 | 53 | 975.0 |
| 20260507200006 | 56 | 295 | 0.0 | 0.0 | 0.00 | 0.00 | 0.00 | 57 | 974.9 |
| 20260507195503 | 56 | 295 | 0.0 | 0.0 | 0.00 | 0.00 | 0.00 | 53 | 975.0 |
| 20260507195003 | 56 | 295 | 0.0 | 0.0 | 0.00 | 0.00 | 0.00 | 55 | 975.1 |
| 20260507194512 | 56 | 294 | 0.0 | 0.0 | 0.00 | 0.00 | 0.00 | 53 | 975.0 |
| 20260507194004 | 55 | 294 | 0.0 | 0.0 | 0.00 | 0.00 | 0.00 | 54 | 975.2 |
| 20260507193504 | 55 | 295 | 0.0 | 0.0 | 0.00 | 0.00 | 0.00 | 53 | 975.3 |
| 20260507193017 | 55 | 295 | 0.0 | 0.0 | 0.00 | 0.00 | 0.00 | 53 | 975.3 |
| 20260507192505 | 56 | 295 | 0.0 | 0.0 | 0.00 | 0.00 | 0.00 | 52 | 975.3 |
| 20260507192006 | 56 | 295 | 0.0 | 0.0 | 0.00 | 0.00 | 0.00 | 53 | 975.3 |
| 20260507191519 | 56 | 295 | 0.0 | 0.0 | 0.00 | 0.00 | 0.00 | 51 | 975.4 |
| 20260507191010 | 56 | 294 | 0.0 | 0.0 | 0.00 | 0.00 | 0.00 | 52 | 975.4 |
| 20260507190506 | 56 | 294 | 0.0 | 0.0 | 0.00 | 0.00 | 0.00 | 52 | 975.4 |
| 20260507190024 | 57 | 294 | 0.0 | 0.0 | 0.00 | 0.00 | 0.00 | 50 | 975.5 |
| 20260507185510 | 58 | 294 | 0.0 | 0.0 | 0.00 | 0.00 | 0.00 | 49 | 975.5 |
| 20260507185003 | 59 | 294 | 0.0 | 0.0 | 0.00 | 0.00 | 0.00 | 46 | 975.5 |
| 20260507184506 | 61 | 294 | 0.0 | 0.0 | 0.00 | 0.00 | 0.00 | 44 | 975.4 |
| 20260507184002 | 65 | 294 | 0.0 | 0.0 | 0.00 | 0.00 | 0.00 | 40 | 975.4 |
| 20260507183504 | 65 | 294 | 0.0 | 0.0 | 0.00 | 0.00 | 0.00 | 42 | 975.3 |
| 20260507183011 | 65 | 294 | 0.0 | 0.0 | 0.00 | 0.00 | 0.00 | 42 | 975.5 |
| 20260507182503 | 63 | 293 | 0.0 | 0.0 | 0.00 | 0.00 | 0.00 | 48 | 975.4 |
| 20260507182007 | 62 | 293 | 0.0 | 0.0 | 0.00 | 0.00 | 0.00 | 50 | 975.4 |
| 20260507181515 | 61 | 293 | 0.0 | 0.0 | 0.00 | 0.00 | 0.00 | 50 | 975.3 |
| 20260507181006 | 61 | 292 | 0.0 | 0.0 | 0.00 | 0.00 | 0.00 | 47 | 975.1 |
| 20260507180509 | 58 | 292 | 0.0 | 0.0 | 0.00 | 0.00 | 0.00 | 53 | 974.4 |
| 20260507180023 | 58 | 288 | 0.0 | 0.0 | 0.00 | 0.00 | 0.00 | 48 | 974.3 |
| 20260507175506 | 60 | 288 | 0.0 | 0.0 | 0.00 | 0.00 | 0.00 | 48 | 972.9 |
| 20260507175012 | 59 | 284 | 0.0 | 0.0 | 0.00 | 0.00 | 0.00 | 47 | 971.8 |
| 20260507174534 | 59 | 285 | 0.0 | 0.0 | 0.00 | 0.00 | 0.00 | 45 | 981.5 |
| 20260507174010 | 59 | 287 | 0.0 | 0.0 | 0.00 | 0.00 | 0.00 | 48 | 971.4 |
| 20260507173510 | 59 | 287 | 0.0 | 0.0 | 0.00 | 0.00 | 0.00 | 47 | 974.9 |
| 20260507173011 | 59 | 285 | 0.0 | 0.0 | 0.00 | 0.00 | 0.00 | 47 | 982.1 |
| 20260507172503 | 58 | 285 | 0.0 | 0.0 | 0.00 | 0.00 | 0.00 | 49 | 983.2 |
| 20260507172003 | 58 | 287 | 0.0 | 0.0 | 0.00 | 0.00 | 0.00 | 52 | 985.4 |
| 20260507171522 | 59 | 288 | 0.0 | 0.0 | 0.00 | 0.00 | 0.00 | 52 | 984.1 |
| 20260507171009 | 62 | 297 | 0.0 | 0.0 | 0.00 | 0.00 | 0.00 | 49 | 986.1 |
| 20260507170507 | 60 | 293 | 0.0 | 0.0 | 0.00 | 0.00 | 0.00 | 53 | 986.1 |
| 20260507170015 | 58 | 288 | 0.0 | 0.0 | 0.00 | 0.00 | 0.00 | 48 | 983.6 |
| 20260507165507 | 59 | 288 | 0.0 | 0.0 | 0.00 | 0.00 | 0.00 | 46 | 983.1 |
| 20260507165011 | 59 | 288 | 0.0 | 0.0 | 0.00 | 0.00 | 0.00 | 46 | 986.6 |
| 20260507164521 | 58 | 292 | 0.0 | 0.0 | 0.00 | 0.00 | 0.00 | 49 | 988.6 |
| 20260507164009 | 57 | 290 | 0.0 | 0.0 | 0.00 | 0.00 | 0.00 | 52 | 986.5 |
| 20260507163507 | 59 | 288 | 0.0 | 0.0 | 0.00 | 0.00 | 0.00 | 47 | 987.3 |
| 20260507163026 | 59 | 288 | 0.0 | 0.0 | 0.00 | 0.00 | 0.00 | 47 | 990.7 |
| 20260507162509 | 59 | 287 | 0.0 | 0.0 | 0.00 | 0.00 | 0.00 | 50 | 991.7 |
| 20260507162010 | 59 | 290 | 0.0 | 0.0 | 0.00 | 0.00 | 0.00 | 47 | 991.1 |
| 20260507161508 | 58 | 291 | 0.0 | 0.0 | 0.00 | 0.00 | 0.00 | 50 | 989.4 |
| 20260507161004 | 59 | 291 | 0.0 | 0.0 | 0.00 | 0.00 | 0.00 | 49 | 990.0 |
| 20260507160504 | 59 | 326 | 0.0 | 0.0 | 0.00 | 0.00 | 0.00 | 48 | 990.9 |
| 20260507160016 | 57 | 312 | 0.0 | 0.0 | 0.00 | 0.00 | 0.00 | 49 | 990.8 |
| 20260507155508 | 58 | 288 | 0.0 | 0.0 | 0.00 | 0.00 | 0.00 | 49 | 989.9 |
| 20260507155009 | 58 | 287 | 0.0 | 0.0 | 0.00 | 0.00 | 0.00 | 50 | 989.4 |
| 20260507154518 | 57 | 289 | 0.0 | 0.0 | 0.00 | 0.00 | 0.00 | 46 | 989.3 |
| 20260507154011 | 59 | 288 | 0.0 | 0.0 | 0.00 | 0.00 | 0.00 | 45 | 990.7 |
| 20260507153505 | 58 | 287 | 0.0 | 0.0 | 0.00 | 0.00 | 0.00 | 44 | 989.5 |
| 20260507153021 | 57 | 290 | 0.0 | 0.0 | 0.00 | 0.00 | 0.00 | 42 | 987.7 |
| 20260507152513 | 58 | 310 | 0.0 | 0.0 | 0.00 | 0.00 | 0.00 | 45 | 987.3 |
| 20260507152013 | 55 | 288 | 0.0 | 0.0 | 0.00 | 0.00 | 0.00 | 49 | 986.2 |
| 20260507151527 | 55 | 287 | 0.0 | 0.0 | 0.00 | 0.00 | 0.00 | 48 | 985.3 |
| 20260507151011 | 54 | 286 | 0.0 | 0.0 | 0.00 | 0.00 | 0.00 | 50 | 985.4 |
| 20260507150513 | 54 | 285 | 0.0 | 0.0 | 0.00 | 0.00 | 0.00 | 50 | 987.0 |
| 20260507150012 | 52 | 302 | 0.0 | 0.0 | 0.00 | 0.00 | 0.00 | 47 | 985.7 |
| 20260507145505 | 53 | 293 | 0.0 | 0.0 | 0.00 | 0.00 | 0.00 | 51 | 985.6 |
| 20260507145012 | 52 | 285 | 0.0 | 0.0 | 0.00 | 0.00 | 0.00 | 49 | 981.3 |
| 20260507144518 | 52 | 286 | 0.0 | 0.0 | 0.00 | 0.00 | 0.00 | 51 | 981.4 |
| 20260507144006 | 52 | 285 | 0.0 | 0.0 | 0.00 | 0.00 | 0.00 | 48 | 979.5 |
| 20260507143512 | 51 | 288 | 0.0 | 0.0 | 0.00 | 0.00 | 0.00 | 47 | 978.4 |
| 20260507143033 | 51 | 288 | 0.0 | 0.0 | 0.00 | 0.00 | 0.00 | 50 | 976.1 |
| 20260507142506 | 51 | 287 | 0.0 | 0.0 | 0.00 | 0.00 | 0.00 | 51 | 976.6 |
| 20260507142013 | 50 | 288 | 0.0 | 0.0 | 0.00 | 0.00 | 0.00 | 52 | 978.5 |
| 20260507141533 | 50 | 288 | 0.0 | 0.0 | 0.00 | 0.00 | 0.00 | 53 | 980.1 |
| 20260507141008 | 48 | 294 | 0.0 | 0.0 | 0.00 | 0.00 | 0.00 | 55 | 980.9 |
| 20260507140509 | 47 | 298 | 0.0 | 0.0 | 0.00 | 0.00 | 0.00 | 55 | 981.6 |
| 20260507140025 | 47 | 296 | 0.0 | 0.0 | 0.00 | 0.00 | 0.00 | 56 | 981.6 |
| 20260507135506 | 47 | 294 | 0.0 | 0.0 | 0.00 | 0.00 | 0.00 | 54 | 981.6 |
| 20260507135009 | 49 | 292 | 0.0 | 0.0 | 0.00 | 0.00 | 0.00 | 54 | 981.6 |
| 20260507134528 | 49 | 290 | 0.0 | 0.0 | 0.00 | 0.00 | 0.00 | 55 | 981.8 |
| 20260507134005 | 48 | 291 | 0.0 | 0.0 | 0.00 | 0.00 | 0.00 | 57 | 983.0 |
| 20260507133506 | 49 | 293 | 0.0 | 0.0 | 0.00 | 0.00 | 0.00 | 54 | 983.9 |
| 20260507133019 | 49 | 293 | 0.0 | 0.0 | 0.00 | 0.00 | 0.00 | 53 | 984.7 |
| 20260507132507 | 50 | 300 | 0.0 | 0.0 | 0.00 | 0.00 | 0.00 | 55 | 986.6 |
| 20260507132006 | 49 | 303 | 0.0 | 0.0 | 0.00 | 0.00 | 0.00 | 54 | 987.2 |
| 20260507131527 | 50 | 311 | 0.0 | 0.0 | 0.00 | 0.00 | 0.00 | 53 | 982.5 |
| 20260507131009 | 48 | 313 | 0.0 | 0.0 | 0.00 | 0.00 | 0.00 | 57 | 983.8 |
| 20260507130510 | 47 | 313 | 0.0 | 0.0 | 0.00 | 0.00 | 0.00 | 61 | 983.9 |
| 20260507130023 | 46 | 312 | 0.0 | 0.0 | 0.00 | 0.00 | 0.00 | 62 | 983.9 |
| 20260507125511 | 46 | 315 | 0.0 | 0.0 | 0.00 | 0.00 | 0.00 | 65 | 984.9 |
| 20260507125011 | 45 | 323 | 0.0 | 0.0 | 0.00 | 0.00 | 0.00 | 66 | 984.7 |
| 20260507124529 | 44 | 34 | 0.0 | 0.0 | 0.00 | 0.00 | 0.00 | 68 | 986.2 |
| 20260507124010 | 44 | 32 | 0.0 | 0.0 | 0.00 | 0.00 | 0.00 | 69 | 986.2 |
| 20260507123506 | 43 | 32 | 0.0 | 0.0 | 0.00 | 0.00 | 0.00 | 72 | 986.2 |
| 20260507123015 | 43 | 36 | 0.0 | 0.0 | 0.00 | 0.00 | 0.00 | 73 | 986.3 |
| 20260507122503 | 42 | 37 | 0.0 | 0.0 | 0.00 | 0.00 | 0.00 | 73 | 986.3 |
| 20260507122006 | 42 | 37 | 0.0 | 0.0 | 0.00 | 0.00 | 0.00 | 74 | 986.2 |
| 20260507121520 | 42 | 37 | 0.0 | 0.0 | 0.00 | 0.00 | 0.00 | 75 | 986.2 |
| 20260507121008 | 41 | 37 | 0.0 | 0.0 | 0.00 | 0.00 | 0.00 | 75 | 986.0 |
| 20260507120502 | 41 | 37 | 0.0 | 0.0 | 0.00 | 0.00 | 0.00 | 76 | 986.0 |
| 20260507120005 | 41 | 37 | 0.0 | 0.0 | 0.00 | 0.00 | 0.00 | 77 | 986.1 |
| 20260507115503 | 40 | 37 | 0.0 | 0.0 | 0.00 | 0.00 | 0.00 | 77 | 986.1 |
| 20260507115003 | 40 | 37 | 0.0 | 0.0 | 0.00 | 0.00 | 0.00 | 78 | 986.2 |
| 20260507114510 | 40 | 37 | 0.0 | 0.0 | 0.00 | 0.00 | 0.00 | 79 | 986.2 |
| 20260507114003 | 39 | 37 | 0.0 | 0.0 | 0.00 | 0.00 | 0.00 | 79 | 986.2 |
| 20260507113502 | 39 | 37 | 0.0 | 0.0 | 0.00 | 0.00 | 0.00 | 80 | 986.1 |
| 20260507113012 | 39 | 37 | 0.0 | 0.0 | 0.00 | 0.00 | 0.00 | 79 | 986.0 |
| 20260507112503 | 39 | 37 | 0.0 | 0.0 | 0.00 | 0.00 | 0.00 | 79 | 985.9 |
| 20260507112006 | 39 | 37 | 0.0 | 0.0 | 0.00 | 0.00 | 0.00 | 79 | 985.8 |
| 20260507111518 | 39 | 37 | 0.0 | 0.0 | 0.00 | 0.00 | 0.00 | 79 | 985.8 |
| 20260507111006 | 39 | 36 | 0.0 | 0.0 | 0.00 | 0.00 | 0.00 | 79 | 985.7 |
| 20260507110507 | 39 | 36 | 0.0 | 0.0 | 0.00 | 0.00 | 0.00 | 78 | 985.6 |
| 20260507110022 | 39 | 36 | 0.0 | 0.0 | 0.00 | 0.00 | 0.00 | 78 | 985.5 |
| 20260507105510 | 39 | 36 | 0.0 | 0.0 | 0.00 | 0.00 | 0.00 | 78 | 985.5 |
| 20260507105007 | 39 | 36 | 0.0 | 0.0 | 0.00 | 0.00 | 0.00 | 78 | 985.5 |
| 20260507104506 | 39 | 36 | 0.0 | 0.0 | 0.00 | 0.00 | 0.00 | 77 | 985.5 |
| 20260507104005 | 39 | 36 | 0.0 | 0.0 | 0.00 | 0.00 | 0.00 | 77 | 985.5 |
| 20260507103503 | 39 | 36 | 0.0 | 0.0 | 0.00 | 0.00 | 0.00 | 77 | 985.4 |
| 20260507103007 | 39 | 36 | 0.0 | 0.0 | 0.00 | 0.00 | 0.00 | 77 | 985.3 |
| 20260507102504 | 39 | 36 | 0.0 | 0.0 | 0.00 | 0.00 | 0.00 | 77 | 985.3 |
| 20260507102006 | 40 | 36 | 0.0 | 0.0 | 0.00 | 0.00 | 0.00 | 77 | 985.3 |
| 20260507101512 | 40 | 36 | 0.0 | 0.0 | 0.00 | 0.00 | 0.00 | 76 | 985.4 |
| 20260507101007 | 40 | 36 | 0.0 | 0.0 | 0.00 | 0.00 | 0.00 | 76 | 985.5 |
| 20260507100504 | 40 | 36 | 0.0 | 0.0 | 0.00 | 0.00 | 0.00 | 76 | 985.4 |
| 20260507100021 | 40 | 36 | 0.0 | 0.0 | 0.00 | 0.00 | 0.00 | 76 | 985.4 |
| 20260507095507 | 40 | 36 | 0.0 | 0.0 | 0.00 | 0.00 | 0.00 | 76 | 985.4 |
| 20260507095007 | 40 | 36 | 0.0 | 0.0 | 0.00 | 0.00 | 0.00 | 76 | 985.4 |
| 20260507094523 | 40 | 36 | 0.0 | 0.0 | 0.00 | 0.00 | 0.00 | 75 | 985.4 |
| 20260507094010 | 40 | 36 | 0.0 | 0.0 | 0.00 | 0.00 | 0.00 | 75 | 985.4 |
| 20260507093508 | 40 | 36 | 0.0 | 0.0 | 0.00 | 0.00 | 0.00 | 75 | 985.5 |
| 20260507093006 | 40 | 36 | 0.0 | 0.0 | 0.00 | 0.00 | 0.00 | 75 | 985.4 |
| 20260507092503 | 40 | 36 | 0.0 | 0.0 | 0.00 | 0.00 | 0.00 | 75 | 985.4 |
| 20260507092003 | 41 | 36 | 0.0 | 0.0 | 0.00 | 0.00 | 0.00 | 75 | 985.4 |
| 20260507091513 | 41 | 36 | 0.0 | 0.0 | 0.00 | 0.00 | 0.00 | 75 | 985.3 |
| 20260507091003 | 41 | 36 | 0.0 | 0.0 | 0.00 | 0.00 | 0.00 | 75 | 985.3 |
| 20260507090503 | 41 | 36 | 0.0 | 0.0 | 0.00 | 0.00 | 0.00 | 75 | 985.3 |
| 20260507090017 | 41 | 36 | 0.0 | 0.0 | 0.00 | 0.00 | 0.00 | 74 | 985.3 |
| 20260507085506 | 41 | 36 | 0.0 | 0.0 | 0.00 | 0.00 | 0.00 | 74 | 985.5 |
| 20260507085007 | 41 | 36 | 0.0 | 0.0 | 0.00 | 0.00 | 0.00 | 73 | 985.5 |
| 20260507084520 | 41 | 36 | 0.0 | 0.0 | 0.00 | 0.00 | 0.00 | 73 | 985.5 |
| 20260507084009 | 41 | 36 | 0.0 | 0.0 | 0.00 | 0.00 | 0.00 | 73 | 985.4 |
| 20260507083508 | 41 | 36 | 0.0 | 0.0 | 0.00 | 0.00 | 0.00 | 73 | 985.4 |
| 20260507083024 | 41 | 36 | 0.0 | 0.0 | 0.00 | 0.00 | 0.00 | 72 | 985.2 |
| 20260507082507 | 41 | 36 | 0.0 | 0.0 | 0.00 | 0.00 | 0.00 | 72 | 985.2 |
| 20260507082009 | 41 | 36 | 0.0 | 0.0 | 0.00 | 0.00 | 0.00 | 72 | 985.3 |
| 20260507081526 | 41 | 36 | 0.0 | 0.0 | 0.00 | 0.00 | 0.00 | 72 | 985.4 |
| 20260507081003 | 41 | 36 | 0.0 | 0.0 | 0.00 | 0.00 | 0.00 | 72 | 985.5 |
| 20260507080502 | 41 | 36 | 0.0 | 0.0 | 0.00 | 0.00 | 0.00 | 71 | 985.5 |
| 20260507080012 | 42 | 36 | 0.0 | 0.0 | 0.00 | 0.00 | 0.00 | 71 | 985.5 |
| 20260507075503 | 42 | 36 | 0.0 | 0.0 | 0.00 | 0.00 | 0.00 | 71 | 985.5 |
| 20260507075006 | 42 | 36 | 0.0 | 0.0 | 0.00 | 0.00 | 0.00 | 71 | 985.4 |
| 20260507074514 | 42 | 36 | 0.0 | 0.0 | 0.00 | 0.00 | 0.00 | 70 | 985.3 |
| 20260507074004 | 42 | 36 | 0.0 | 0.0 | 0.00 | 0.00 | 0.00 | 70 | 985.3 |
| 20260507073506 | 42 | 36 | 0.0 | 0.0 | 0.00 | 0.00 | 0.00 | 70 | 985.3 |
| 20260507073020 | 42 | 36 | 0.0 | 0.0 | 0.00 | 0.00 | 0.00 | 69 | 985.3 |
| 20260507072511 | 43 | 36 | 0.0 | 0.0 | 0.00 | 0.00 | 0.00 | 69 | 985.4 |
| 20260507072010 | 43 | 36 | 0.0 | 0.0 | 0.00 | 0.00 | 0.00 | 69 | 985.4 |
| 20260507071525 | 43 | 36 | 0.0 | 0.0 | 0.00 | 0.00 | 0.00 | 68 | 985.3 |
| 20260507071006 | 43 | 36 | 0.0 | 0.0 | 0.00 | 0.00 | 0.00 | 68 | 985.3 |
| 20260507070512 | 43 | 36 | 0.0 | 0.0 | 0.00 | 0.00 | 0.00 | 68 | 985.3 |
| 20260507070040 | 43 | 36 | 0.0 | 0.0 | 0.00 | 0.00 | 0.00 | 67 | 985.4 |
| 20260507065510 | 43 | 36 | 0.0 | 0.0 | 0.00 | 0.00 | 0.00 | 67 | 985.4 |
| 20260507065003 | 44 | 36 | 0.0 | 0.0 | 0.00 | 0.00 | 0.00 | 66 | 985.3 |
| 20260507064514 | 44 | 36 | 0.0 | 0.0 | 0.00 | 0.00 | 0.00 | 66 | 985.3 |
| 20260507064003 | 44 | 36 | 0.0 | 0.0 | 0.00 | 0.00 | 0.00 | 65 | 985.4 |
| 20260507063507 | 44 | 36 | 0.0 | 0.0 | 0.00 | 0.00 | 0.00 | 65 | 985.5 |
| 20260507063017 | 44 | 36 | 0.0 | 0.0 | 0.00 | 0.00 | 0.00 | 64 | 985.5 |
| 20260507062507 | 45 | 36 | 0.0 | 0.0 | 0.00 | 0.00 | 0.00 | 64 | 985.5 |
| 20260507062006 | 45 | 37 | 0.0 | 0.0 | 0.00 | 0.00 | 0.00 | 64 | 985.6 |
| 20260507061523 | 45 | 37 | 0.0 | 0.0 | 0.00 | 0.00 | 0.00 | 64 | 985.6 |
| 20260507061006 | 45 | 36 | 0.0 | 0.0 | 0.00 | 0.00 | 0.00 | 64 | 985.6 |
| 20260507060509 | 45 | 36 | 0.0 | 0.0 | 0.00 | 0.00 | 0.00 | 63 | 985.6 |
| 20260507060027 | 45 | 36 | 0.0 | 0.0 | 0.00 | 0.00 | 0.00 | 64 | 985.5 |
| 20260507055506 | 45 | 36 | 0.0 | 0.0 | 0.00 | 0.00 | 0.00 | 64 | 985.5 |
| 20260507055018 | 46 | 36 | 0.0 | 0.0 | 0.00 | 0.00 | 0.00 | 64 | 985.6 |
| 20260507054526 | 46 | 37 | 0.0 | 0.0 | 0.00 | 0.00 | 0.00 | 63 | 985.6 |
| 20260507054007 | 46 | 37 | 0.0 | 0.0 | 0.00 | 0.00 | 0.00 | 63 | 985.6 |
| 20260507053511 | 46 | 37 | 0.0 | 0.0 | 0.00 | 0.00 | 0.00 | 64 | 985.6 |
| 20260507053014 | 46 | 37 | 0.0 | 0.0 | 0.00 | 0.00 | 0.00 | 64 | 985.6 |
| 20260507052506 | 46 | 37 | 0.0 | 0.0 | 0.00 | 0.00 | 0.00 | 63 | 985.6 |
| 20260507052007 | 46 | 36 | 0.0 | 0.0 | 0.00 | 0.00 | 0.00 | 63 | 985.6 |
| 20260507051522 | 47 | 37 | 0.0 | 0.0 | 0.00 | 0.00 | 0.00 | 63 | 985.6 |
| 20260507051008 | 47 | 37 | 0.0 | 0.0 | 0.00 | 0.00 | 0.00 | 62 | 985.6 |
| 20260507050510 | 47 | 37 | 0.0 | 0.0 | 0.00 | 0.00 | 0.00 | 62 | 985.6 |
| 20260507050028 | 47 | 37 | 0.0 | 0.0 | 0.00 | 0.00 | 0.00 | 61 | 985.6 |
| 20260507045507 | 47 | 37 | 0.0 | 0.0 | 0.00 | 0.00 | 0.00 | 62 | 985.6 |
| 20260507045007 | 48 | 37 | 0.0 | 0.0 | 0.00 | 0.00 | 0.00 | 61 | 985.6 |
| 20260507044526 | 48 | 37 | 0.0 | 0.0 | 0.00 | 0.00 | 0.00 | 60 | 985.5 |
| 20260507044012 | 48 | 37 | 0.0 | 0.0 | 0.00 | 0.00 | 0.00 | 60 | 985.5 |
| 20260507043507 | 48 | 36 | 0.0 | 0.0 | 0.00 | 0.00 | 0.00 | 60 | 985.5 |
| 20260507043028 | 48 | 36 | 0.0 | 0.0 | 0.00 | 0.00 | 0.00 | 59 | 985.5 |
| 20260507042508 | 48 | 36 | 0.0 | 0.0 | 0.00 | 0.00 | 0.00 | 59 | 985.4 |
| 20260507042016 | 48 | 36 | 0.0 | 0.0 | 0.00 | 0.00 | 0.00 | 59 | 985.3 |
| 20260507041518 | 48 | 36 | 0.0 | 0.0 | 0.00 | 0.00 | 0.00 | 59 | 985.3 |
| 20260507041004 | 49 | 36 | 0.0 | 0.0 | 0.00 | 0.00 | 0.00 | 58 | 985.3 |
| 20260507040509 | 49 | 36 | 0.0 | 0.0 | 0.00 | 0.00 | 0.00 | 57 | 985.3 |
| 20260507040019 | 49 | 35 | 0.0 | 0.0 | 0.00 | 0.00 | 0.00 | 58 | 985.3 |
| 20260507035508 | 49 | 35 | 0.0 | 0.0 | 0.00 | 0.00 | 0.00 | 58 | 985.4 |
| 20260507035008 | 49 | 35 | 0.0 | 0.0 | 0.00 | 0.00 | 0.00 | 59 | 985.4 |
| 20260507034525 | 49 | 35 | 0.0 | 0.0 | 0.00 | 0.00 | 0.00 | 58 | 985.4 |
| 20260507034010 | 49 | 35 | 0.0 | 0.0 | 0.00 | 0.00 | 0.00 | 57 | 985.3 |
| 20260507033503 | 50 | 35 | 0.0 | 0.0 | 0.00 | 0.00 | 0.00 | 56 | 985.4 |
| 20260507033003 | 50 | 35 | 0.0 | 0.0 | 0.00 | 0.00 | 0.00 | 57 | 985.3 |
| 20260507032502 | 50 | 35 | 0.0 | 0.0 | 0.00 | 0.00 | 0.00 | 56 | 985.3 |
| 20260507032003 | 50 | 35 | 0.0 | 0.0 | 0.00 | 0.00 | 0.00 | 56 | 985.3 |
| 20260507031502 | 50 | 35 | 0.0 | 0.0 | 0.00 | 0.00 | 0.00 | 56 | 985.3 |
| 20260507031004 | 50 | 34 | 0.0 | 0.0 | 0.00 | 0.00 | 0.00 | 56 | 985.4 |
| 20260507030503 | 51 | 35 | 0.0 | 0.0 | 0.00 | 0.00 | 0.00 | 56 | 985.3 |
| 20260507030002 | 51 | 35 | 0.0 | 0.0 | 0.00 | 0.00 | 0.00 | 54 | 985.3 |
| 20260507025502 | 51 | 35 | 0.0 | 0.0 | 0.00 | 0.00 | 0.00 | 54 | 985.3 |
| 20260507025003 | 51 | 35 | 0.0 | 0.0 | 0.00 | 0.00 | 0.00 | 55 | 985.2 |
| 20260507024508 | 51 | 35 | 0.0 | 0.0 | 0.00 | 0.00 | 0.00 | 55 | 985.2 |
| 20260507024005 | 51 | 35 | 0.0 | 0.0 | 0.00 | 0.00 | 0.00 | 56 | 985.2 |
| 20260507023503 | 51 | 35 | 0.0 | 0.0 | 0.00 | 0.00 | 0.00 | 57 | 985.2 |
| 20260507023004 | 51 | 35 | 0.0 | 0.0 | 0.00 | 0.00 | 0.00 | 56 | 985.1 |
| 20260507022503 | 51 | 35 | 0.0 | 0.0 | 0.00 | 0.00 | 0.00 | 56 | 985.1 |
| 20260507022005 | 52 | 35 | 0.0 | 0.0 | 0.00 | 0.00 | 0.00 | 57 | 985.0 |
| 20260507021506 | 52 | 35 | 0.0 | 0.0 | 0.00 | 0.00 | 0.00 | 56 | 985.0 |
| 20260507021006 | 51 | 35 | 0.0 | 0.0 | 0.00 | 0.00 | 0.00 | 57 | 984.8 |
| 20260507020504 | 52 | 34 | 0.0 | 0.0 | 0.00 | 0.00 | 0.00 | 59 | 984.8 |
| 20260507020009 | 52 | 34 | 0.0 | 0.0 | 0.00 | 0.00 | 0.00 | 59 | 984.8 |
| 20260507015503 | 52 | 34 | 0.0 | 0.0 | 0.00 | 0.00 | 0.00 | 59 | 984.7 |
| 20260507015002 | 52 | 34 | 0.0 | 0.0 | 0.00 | 0.00 | 0.00 | 56 | 984.7 |
| 20260507014508 | 52 | 34 | 0.0 | 0.0 | 0.00 | 0.00 | 0.00 | 54 | 984.6 |
| 20260507014004 | 52 | 34 | 0.0 | 0.0 | 0.00 | 0.00 | 0.00 | 54 | 984.6 |
| 20260507013503 | 52 | 35 | 0.0 | 0.0 | 0.00 | 0.00 | 0.00 | 53 | 984.6 |
| 20260507013004 | 52 | 34 | 0.0 | 0.0 | 0.00 | 0.00 | 0.00 | 54 | 984.5 |
| 20260507012503 | 52 | 34 | 0.0 | 0.0 | 0.00 | 0.00 | 0.00 | 53 | 984.6 |
| 20260507012004 | 52 | 35 | 0.0 | 0.0 | 0.00 | 0.00 | 0.00 | 54 | 984.6 |
| 20260507011509 | 52 | 34 | 0.0 | 0.0 | 0.00 | 0.00 | 0.00 | 52 | 984.5 |
| 20260507011006 | 52 | 34 | 0.0 | 0.0 | 0.00 | 0.00 | 0.00 | 51 | 984.6 |
| 20260507010507 | 53 | 35 | 0.0 | 0.0 | 0.00 | 0.00 | 0.00 | 51 | 984.6 |
| 20260507010006 | 53 | 35 | 0.0 | 0.0 | 0.00 | 0.00 | 0.00 | 55 | 984.6 |
| 20260507005506 | 53 | 34 | 0.0 | 0.0 | 0.00 | 0.00 | 0.00 | 54 | 984.5 |
| 20260507005003 | 53 | 35 | 0.0 | 0.0 | 0.00 | 0.00 | 0.00 | 54 | 984.6 |
| 20260507004508 | 53 | 34 | 0.0 | 0.0 | 0.00 | 0.00 | 0.00 | 52 | 984.4 |
| 20260507004004 | 53 | 35 | 0.0 | 0.0 | 0.00 | 0.00 | 0.00 | 50 | 984.3 |
| 20260507003503 | 53 | 35 | 0.0 | 0.0 | 0.00 | 0.00 | 0.00 | 52 | 984.3 |
| 20260507003003 | 53 | 35 | 0.0 | 0.0 | 0.00 | 0.00 | 0.00 | 53 | 984.4 |
| 20260507002503 | 53 | 35 | 0.0 | 0.0 | 0.00 | 0.00 | 0.00 | 52 | 984.3 |
| 20260507002003 | 54 | 35 | 0.0 | 0.0 | 0.00 | 0.00 | 0.00 | 52 | 984.4 |
| 20260507001503 | 54 | 35 | 0.0 | 0.0 | 0.00 | 0.00 | 0.00 | 51 | 984.4 |
| 20260507001004 | 54 | 35 | 0.0 | 0.0 | 0.00 | 0.00 | 0.00 | 53 | 984.4 |
| 20260507000504 | 54 | 35 | 0.0 | 0.0 | 0.00 | 0.00 | 0.00 | 51 | 984.4 |
| 20260507000008 | 54 | 35 | 0.0 | 0.0 | 0.00 | 0.00 | 0.00 | 51 | 984.4 |
| 20260506235504 | 54 | 35 | 0.0 | 0.0 | 0.00 | 0.00 | 0.00 | 50 | 984.4 |
| 20260506235003 | 54 | 35 | 0.0 | 0.0 | 0.00 | 0.00 | 0.00 | 51 | 984.4 |
| 20260506234508 | 54 | 35 | 0.0 | 0.0 | 0.00 | 0.00 | 0.00 | 47 | 984.4 |
| 20260506234003 | 54 | 35 | 0.0 | 0.0 | 0.00 | 0.00 | 0.00 | 49 | 984.4 |
| 20260506233507 | 55 | 35 | 0.0 | 0.0 | 0.00 | 0.00 | 0.00 | 48 | 984.4 |
| 20260506233008 | 55 | 35 | 0.0 | 0.0 | 0.00 | 0.00 | 0.00 | 50 | 984.4 |
| 20260506232504 | 55 | 35 | 0.0 | 0.0 | 0.00 | 0.00 | 0.00 | 49 | 984.2 |
| 20260506232003 | 55 | 35 | 0.0 | 0.0 | 0.00 | 0.00 | 0.00 | 48 | 984.3 |
| 20260506231504 | 55 | 35 | 0.0 | 0.0 | 0.00 | 0.00 | 0.00 | 47 | 984.3 |
| 20260506231002 | 55 | 35 | 0.0 | 0.0 | 0.00 | 0.00 | 0.00 | 48 | 984.3 |
| 20260506230503 | 55 | 35 | 0.0 | 0.0 | 0.00 | 0.00 | 0.00 | 47 | 984.3 |
| 20260506230010 | 55 | 35 | 0.0 | 0.0 | 0.00 | 0.00 | 0.00 | 48 | 984.3 |
| 20260506225505 | 55 | 35 | 0.0 | 0.0 | 0.00 | 0.00 | 0.00 | 49 | 984.2 |
| 20260506225006 | 55 | 35 | 0.0 | 0.0 | 0.00 | 0.00 | 0.00 | 45 | 984.3 |
| 20260506224512 | 55 | 35 | 0.0 | 0.0 | 0.00 | 0.00 | 0.00 | 46 | 984.4 |
| 20260506224003 | 56 | 35 | 0.0 | 0.0 | 0.00 | 0.00 | 0.00 | 47 | 984.4 |
| 20260506223503 | 56 | 35 | 0.0 | 0.0 | 0.00 | 0.00 | 0.00 | 45 | 984.3 |
| 20260506223017 | 56 | 35 | 0.0 | 0.0 | 0.00 | 0.00 | 0.00 | 45 | 984.3 |
| 20260506222505 | 56 | 35 | 0.0 | 0.0 | 0.00 | 0.00 | 0.00 | 46 | 984.4 |
| 20260506222006 | 56 | 36 | 0.0 | 0.0 | 0.00 | 0.00 | 0.00 | 46 | 984.4 |
| 20260506221510 | 56 | 35 | 0.0 | 0.0 | 0.00 | 0.00 | 0.00 | 47 | 984.4 |
| 20260506221003 | 56 | 35 | 0.0 | 0.0 | 0.00 | 0.00 | 0.00 | 44 | 984.3 |
| 20260506220503 | 57 | 36 | 0.0 | 0.0 | 0.00 | 0.00 | 0.00 | 45 | 984.4 |
| 20260506220004 | 57 | 37 | 0.0 | 0.0 | 0.00 | 0.00 | 0.00 | 44 | 984.4 |
| 20260506215503 | 57 | 35 | 0.0 | 0.0 | 0.00 | 0.00 | 0.00 | 45 | 984.3 |